Temp
10 10 10 10 10 10 10 12 13 13 13 13 13 13 13 12 12 12 11 11 11 11 11 10 10 10 9 9 9 9 8 8 7 7 7 7 7 7 7 7 6 6 6 6 6 6 6 6 6
10 10 10 9 9 10 11 13 13 12 13 13 12 12 12 12 11 11 11 11 10 10 10 10 10 9 9 9 8 8 8 7 7 7 7 6 6 6 6 6 6 6 6 6 6 6 6 6 6
9 10 10 9 10 10 12 12 13 13 13 12 12 11 11 11 11 11 11 10 10 10 10 10 9 9 9 9 8 8 8 7 7 7 6 6 6 6 6 6 6 6 6 6 6 5 5 5 5
9 9 9 9 11 12 12 13 12 13 13 12 11 11 11 11 10 11 11 10 10 10 10 10 9 9 9 8 8 8 7 7 7 6 6 6 6 6 6 6 6 6 5 5 5 5 5 5 5
9 9 9 9 10 11 13 13 13 13 12 11 11 11 11 10 10 10 10 10 9 9 9 9 9 9 8 8 8 7 7 7 6 6 6 6 5 5 5 5 5 5 5 5 5 5 5 5 4
9 8 8 9 10 11 12 12 12 12 12 11 11 10 10 10 9 9 9 9 9 9 9 8 8 8 7 7 7 7 7 6 6 6 6 5 5 5 5 5 4 4 4 4 4 4 4 4 4
9 8 9 9 10 11 11 11 11 11 11 10 10 9 9 9 9 9 9 9 9 8 8 8 8 7 7 6 6 6 6 6 6 6 5 5 5 5 4 4 4 4 4 3 4 4 4 4 4
8 8 8 9 10 11 11 11 10 11 10 10 10 10 9 8 9 9 9 8 8 8 8 8 7 7 6 6 6 6 6 6 5 5 5 5 4 4 4 4 3 3 3 3 3 3 3 3 3
7 7 8 9 10 10 10 10 10 10 10 10 10 9 9 8 8 8 8 8 7 8 7 7 6 6 6 5 5 5 5 5 5 4 4 4 4 3 3 3 2 2 2 2 2 2 2 2 2
8 8 9 10 10 10 10 10 9 9 9 9 9 9 8 8 7 7 7 7 6 7 7 6 6 5 5 5 4 4 4 4 4 3 3 3 3 2 2 2 1 1 1 1 1 1 2 2 2
8 9 9 10 10 10 9 9 9 9 9 7 8 7 7 7 7 7 6 6 5 5 5 5 5 4 4 3 3 3 3 3 2 2 2 1 1 1 1 1 0 0 0 0 0 0 1 1 1
9 9 10 10 10 10 9 9 8 8 8 7 7 7 6 6 6 6 6 4 4 4 4 4 3 3 3 2 2 2 1 1 0 0 1 0 0 -0 -1 -1 -1 -0 -0 0 0 0 1 1 0
9 10 10 10 10 9 8 8 8 7 7 7 6 6 4 4 3 3 2 1 1 -0 -1 -0 1 1 2 1 1 1 0 0 0 -0 -1 -1 -1 -1 -1 -1 -2 -2 -1 -1 -1 -1 -1 -0 -0
9 9 9 10 9 9 8 7 7 6 5 5 5 4 3 2 1 2 1 1 1 1 0 -1 -1 -0 0 -0 -0 -0 -0 -1 -1 -1 -1 -2 -2 -2 -2 -2 -2 -2 -2 -2 -2 -1 -1 -1 -1
9 9 9 9 9 9 8 7 6 5 5 4 4 4 3 2 2 1 2 1 1 0 -1 -1 -1 -1 -1 -1 -1 -2 -2 -2 -2 -3 -3 -2 -2 -2 -3 -2 -2 -3 -3 -3 -3 -2 -2 -2 -2
9 9 9 9 9 8 8 5 5 5 5 4 4 4 3 2 2 1 1 0 0 0 -1 -0 -1 -1 -1 -2 -2 -2 -3 -3 -3 -3 -3 -3 -2 -2 -2 -2 -2 -3 -3 -3 -3 -3 -2 -2 -2
9 8 9 8 9 8 8 5 4 4 4 4 3 3 2 2 2 1 0 -0 -1 -1 -2 -3 -2 -1 -2 -2 -3 -3 -3 -3 -3 -3 -4 -4 -4 -4 -4 -3 -2 -2 -3 -4 -4 -4 -3 -3 -3
7 7 8 8 8 8 6 4 3 2 3 2 3 2 2 1 0 1 -1 -0 -1 0 -2 -3 -3 -2 -2 -3 -3 -3 -4 -4 -4 -4 -4 -4 -4 -5 -6 -5 -5 -4 -4 -4 -4 -4 -4 -3 -3
6 6 7 8 7 7 4 2 1 1 2 2 2 1 1 1 -0 -0 -2 -2 -2 -3 -2 -3 -4 -3 -3 -4 -3 -4 -3 -4 -5 -5 -6 -6 -5 -4 -4 -5 -5 -5 -4 -4 -5 -5 -5 -4 -4
6 6 6 7 6 5 3 1 0 -0 -0 0 -0 -0 -0 -1 -1 -1 -1 -3 -3 -3 -2 -3 -3 -3 -3 -4 -4 -4 -4 -4 -5 -5 -5 -5 -5 -5 -6 -6 -6 -6 -5 -5 -5 -5 -5 -5 -5
5 5 4 4 5 4 4 0 0 -0 -1 -1 -1 -1 -1 -1 -1 -2 -2 -3 -2 -2 -2 -2 -4 -4 -4 -5 -6 -6 -7 -6 -7 -6 -5 -5 -5 -5 -6 -7 -7 -8 -7 -6 -5 -6 -6 -6 -6
3 4 3 3 4 4 5 -1 -2 -2 -2 -1 -2 -2 -3 -2 -2 -3 -3 -3 -3 -3 -4 -4 -5 -5 -5 -6 -6 -7 -5 -5 -5 -5 -5 -5 -5 -6 -6 -7 -7 -8 -7 -6 -5 -5 -6 -6 -6
3 3 3 3 3 4 2 1 -2 -2 -2 -2 -2 -2 -3 -3 -4 -4 -4 -5 -5 -5 -5 -6 -5 -4 -4 -4 -5 -5 -6 -6 -6 -6 -6 -6 -6 -6 -6 -7 -7 -8 -8 -8 -7 -6 -6 -7 -6
3 3 3 4 4 1 -1 0 -3 -2 -2 -2 -2 -2 -3 -4 -4 -4 -4 -4 -5 -5 -5 -4 -4 -4 -4 -4 -4 -5 -5 -6 -6 -6 -7 -7 -7 -7 -7 -7 -7 -8 -8 -7 -8 -7 -7 -7 -7
2 2 1 0 0 -1 -2 -2 -3 -2 -2 -2 -2 -3 -3 -3 -4 -4 -4 -4 -4 -4 -3 -3 -4 -4 -4 -4 -5 -5 -6 -7 -8 -8 -8 -8 -9 -9 -9 -9 -10 -10 -11 -10 -10 -9 -9 -8 -8
2 1 0 -1 -0 -1 -1 -2 -2 -2 -2 -2 -3 -3 -3 -4 -4 -4 -4 -3 -3 -3 -3 -4 -4 -3 -4 -4 -5 -7 -8 -9 -9 -9 -9 -9 -10 -10 -10 -10 -10 -10 -11 -11 -12 -12 -11 -11 -10
1 1 1 1 0 -2 -2 -2 -3 -3 -3 -3 -2 -2 -3 -3 -3 -3 -3 -3 -3 -3 -3 -3 -4 -4 -5 -5 -7 -8 -9 -9 -8 -8 -8 -8 -8 -7 -7 -8 -8 -8 -8 -8 -10 -12 -12 -12 -12
1 1 1 0 -5 -5 -2 -2 -3 -2 -2 -2 -3 -3 -4 -4 -4 -3 -3 -3 -3 -3 -3 -4 -4 -4 -5 -6 -8 -8 -7 -6 -6 -6 -7 -7 -7 -7 -7 -7 -8 -8 -8 -8 -8 -9 -11 -12 -11
1 1 -1 -1 -2 -6 -6 -3 -2 -2 -2 -3 -3 -4 -4 -4 -3 -3 -3 -2 -3 -3 -4 -4 -4 -4 -6 -7 -7 -6 -6 -6 -6 -6 -7 -7 -7 -7 -7 -8 -8 -9 -9 -9 -9 -9 -9 -12 -13
0 -3 -1 -2 -2 -2 -2 -2 -2 -3 -3 -3 -3 -3 -3 -3 -3 -2 -2 -2 -3 -3 -3 -3 -4 -6 -7 -7 -6 -6 -6 -6 -7 -7 -7 -7 -8 -8 -8 -9 -9 -9 -10 -10 -10 -9 -9 -11 -13
Height
3158 3157 3156 3155 3159 3153 3150 3150 3152 3148 3150 3148 3146 3145 3145 3145 3148 3151 3152 3154 3153 3154 3155 3157 3158 3158 3158 3157 3157 3157 3156 3156 3155 3155 3154 3154 3154 3153 3153 3153 3153 3153 3153 3154 3154 3154 3155 3155 3156
3158 3156 3156 3154 3154 3151 3150 3150 3148 3147 3149 3148 3145 3143 3144 3143 3146 3148 3150 3152 3152 3154 3155 3156 3156 3156 3156 3155 3155 3154 3154 3153 3153 3152 3152 3151 3151 3151 3151 3151 3151 3151 3152 3152 3152 3153 3153 3154 3154
3156 3156 3156 3153 3150 3147 3147 3149 3145 3145 3149 3145 3145 3145 3144 3146 3145 3146 3149 3150 3152 3153 3153 3153 3154 3154 3154 3153 3153 3152 3152 3151 3151 3150 3150 3149 3149 3149 3149 3149 3149 3149 3150 3150 3150 3151 3151 3151 3152
3155 3155 3155 3152 3147 3146 3148 3151 3143 3143 3144 3142 3141 3143 3144 3145 3145 3146 3146 3147 3150 3150 3150 3150 3151 3152 3151 3151 3151 3150 3150 3150 3149 3149 3148 3147 3147 3147 3147 3147 3147 3148 3147 3147 3148 3148 3149 3149 3149
3153 3154 3152 3150 3148 3149 3149 3147 3144 3142 3141 3140 3140 3138 3141 3142 3144 3145 3144 3146 3148 3148 3148 3148 3148 3148 3148 3149 3148 3148 3148 3147 3147 3146 3146 3145 3146 3145 3145 3145 3145 3145 3145 3145 3145 3145 3146 3146 3147
3152 3153 3151 3149 3148 3146 3149 3145 3143 3141 3140 3139 3136 3138 3140 3142 3143 3143 3143 3146 3146 3145 3145 3145 3145 3145 3145 3145 3146 3146 3145 3145 3145 3144 3144 3144 3143 3143 3143 3143 3142 3142 3142 3142 3142 3143 3143 3143 3144
3150 3151 3150 3149 3145 3149 3148 3146 3143 3141 3140 3136 3135 3138 3141 3142 3142 3140 3142 3144 3144 3143 3142 3142 3142 3142 3142 3142 3142 3143 3143 3143 3142 3142 3142 3141 3141 3141 3141 3140 3140 3140 3140 3140 3139 3140 3140 3140 3141
3149 3151 3149 3146 3147 3150 3147 3144 3142 3140 3138 3139 3136 3137 3140 3139 3139 3140 3139 3139 3141 3140 3139 3139 3139 3139 3139 3138 3139 3139 3140 3140 3140 3139 3139 3138 3138 3138 3138 3138 3137 3137 3136 3136 3136 3137 3137 3137 3137
3147 3148 3146 3143 3146 3148 3143 3141 3142 3138 3136 3136 3136 3135 3137 3135 3137 3137 3136 3135 3137 3136 3136 3137 3136 3135 3135 3135 3135 3136 3136 3136 3136 3136 3136 3135 3135 3135 3134 3134 3134 3134 3134 3133 3133 3133 3133 3134 3134
3146 3145 3145 3143 3145 3143 3141 3138 3139 3136 3134 3133 3135 3136 3136 3135 3135 3135 3133 3133 3133 3132 3133 3133 3133 3132 3131 3131 3131 3131 3132 3132 3132 3132 3132 3131 3132 3133 3132 3131 3131 3130 3129 3130 3129 3128 3129 3129 3129
3143 3142 3142 3143 3142 3139 3138 3136 3135 3135 3135 3133 3132 3134 3136 3134 3132 3132 3129 3130 3130 3128 3128 3129 3128 3128 3128 3127 3127 3127 3127 3128 3128 3127 3127 3128 3127 3126 3127 3127 3127 3127 3125 3126 3126 3125 3124 3124 3124
3141 3139 3139 3142 3138 3136 3136 3134 3133 3134 3135 3135 3134 3131 3131 3131 3129 3127 3126 3127 3125 3123 3121 3123 3125 3124 3124 3124 3123 3123 3123 3124 3124 3125 3124 3124 3123 3123 3122 3123 3122 3122 3121 3121 3121 3120 3119 3120 3120
3136 3136 3136 3137 3134 3133 3136 3133 3133 3133 3132 3134 3134 3132 3130 3129 3127 3125 3123 3123 3122 3120 3119 3119 3123 3121 3120 3120 3119 3120 3121 3122 3122 3121 3121 3120 3120 3120 3119 3118 3117 3116 3114 3113 3113 3114 3113 3113 3114
3134 3133 3132 3133 3133 3132 3135 3133 3131 3132 3131 3131 3132 3132 3131 3130 3129 3128 3125 3123 3122 3120 3119 3119 3122 3120 3119 3118 3118 3118 3117 3117 3116 3117 3118 3118 3117 3116 3115 3114 3113 3112 3111 3111 3109 3109 3107 3107 3107
3132 3131 3132 3130 3132 3132 3134 3132 3131 3131 3132 3130 3130 3132 3132 3131 3129 3127 3124 3123 3119 3115 3117 3117 3120 3120 3118 3116 3117 3116 3115 3114 3115 3114 3112 3113 3113 3111 3110 3109 3107 3106 3104 3104 3103 3102 3101 3101 3101
3131 3130 3130 3126 3128 3130 3132 3132 3131 3130 3130 3131 3128 3128 3129 3129 3128 3126 3123 3121 3119 3115 3114 3115 3115 3117 3115 3113 3113 3113 3112 3112 3112 3110 3108 3104 3103 3102 3101 3101 3101 3100 3099 3097 3096 3095 3094 3094 3094
3129 3129 3130 3129 3128 3129 3130 3130 3129 3128 3128 3129 3128 3127 3128 3125 3123 3122 3120 3118 3117 3114 3113 3112 3111 3113 3112 3112 3111 3111 3110 3109 3107 3105 3102 3100 3096 3093 3091 3090 3090 3091 3091 3090 3087 3085 3085 3085 3086
3128 3127 3128 3131 3129 3129 3127 3129 3128 3126 3129 3127 3126 3124 3121 3120 3120 3119 3119 3115 3115 3113 3110 3111 3110 3111 3110 3109 3109 3108 3106 3103 3100 3097 3095 3093 3091 3087 3083 3080 3080 3079 3079 3081 3080 3077 3076 3076 3077
3129 3129 3129 3131 3130 3129 3126 3127 3128 3127 3127 3126 3125 3123 3121 3120 3118 3117 3117 3114 3112 3109 3108 3107 3107 3107 3106 3105 3103 3100 3097 3093 3090 3089 3088 3086 3083 3080 3077 3074 3073 3071 3070 3070 3069 3068 3067 3067 3067
3127 3127 3126 3128 3128 3126 3124 3125 3126 3126 3128 3128 3127 3125 3122 3120 3119 3116 3113 3109 3107 3109 3109 3106 3104 3103 3101 3099 3096 3092 3089 3085 3084 3083 3081 3079 3076 3071 3068 3064 3061 3059 3059 3058 3059 3058 3058 3058 3059
3126 3126 3125 3124 3122 3125 3121 3125 3128 3127 3127 3128 3128 3125 3124 3121 3118 3115 3115 3115 3111 3110 3107 3103 3100 3098 3095 3093 3088 3085 3080 3077 3074 3071 3069 3067 3064 3060 3055 3052 3050 3047 3046 3045 3046 3048 3047 3047 3050
3123 3124 3122 3120 3121 3121 3124 3129 3131 3130 3133 3130 3128 3125 3124 3120 3116 3115 3114 3112 3109 3106 3102 3099 3096 3092 3089 3084 3079 3075 3070 3065 3062 3058 3055 3052 3050 3047 3045 3042 3040 3037 3035 3035 3035 3036 3038 3037 3039
3123 3121 3118 3116 3117 3119 3123 3127 3133 3132 3133 3130 3127 3126 3125 3122 3118 3115 3112 3109 3107 3103 3099 3095 3091 3087 3082 3077 3072 3066 3061 3056 3051 3047 3043 3040 3037 3035 3032 3029 3026 3024 3022 3022 3023 3025 3027 3028 3030
3120 3116 3113 3110 3113 3120 3125 3126 3137 3136 3137 3130 3127 3127 3127 3122 3118 3115 3111 3108 3105 3101 3097 3092 3087 3081 3075 3070 3065 3059 3052 3047 3040 3036 3030 3026 3023 3020 3017 3016 3014 3012 3011 3010 3010 3012 3014 3018 3020
3119 3113 3112 3115 3119 3128 3127 3128 3137 3138 3135 3132 3130 3129 3127 3123 3119 3115 3111 3106 3101 3096 3092 3086 3081 3075 3069 3062 3056 3049 3042 3034 3027 3020 3014 3009 3004 3001 2998 2997 2996 2996 2996 2996 2996 2998 3000 3005 3009
3121 3118 3116 3124 3125 3130 3130 3136 3137 3136 3137 3135 3133 3130 3126 3122 3118 3113 3108 3103 3098 3093 3087 3080 3074 3068 3060 3053 3046 3037 3028 3019 3010 3002 2996 2991 2987 2983 2980 2977 2976 2975 2976 2978 2980 2983 2985 2991 2996
3121 3120 3119 3122 3124 3127 3135 3138 3138 3138 3137 3136 3133 3129 3125 3120 3115 3110 3106 3101 3095 3089 3082 3076 3068 3060 3052 3043 3034 3024 3015 3005 2996 2990 2984 2979 2975 2971 2968 2966 2964 2963 2962 2961 2962 2966 2971 2977 2983
3121 3121 3119 3120 3128 3136 3136 3137 3141 3139 3138 3134 3130 3126 3121 3117 3113 3109 3104 3098 3092 3086 3078 3070 3061 3052 3043 3034 3023 3011 3001 2994 2986 2980 2975 2971 2967 2963 2959 2956 2954 2952 2951 2950 2950 2952 2957 2965 2973
3122 3119 3119 3121 3125 3128 3136 3140 3139 3138 3136 3132 3129 3125 3122 3117 3113 3108 3102 3096 3089 3081 3073 3063 3054 3045 3034 3023 3010 3000 2993 2985 2978 2973 2968 2963 2959 2954 2950 2947 2944 2942 2941 2940 2941 2943 2946 2952 2961
3122 3121 3120 3121 3128 3129 3132 3142 3139 3138 3135 3133 3129 3126 3122 3118 3112 3106 3100 3093 3085 3076 3067 3057 3046 3036 3023 3011 3002 2995 2986 2978 2972 2967 2961 2954 2949 2944 2939 2935 2932 2931 2930 2930 2931 2933 2936 2941 2949
Wind_Speed
6 9 10 9 7 7 17 19 22 8 11 10 15 14 11 7 7 8 10 10 6 4 3 3 4 6 8 9 11 12 12 13 12 11 11 11 11 12 11 12 12 12 12 12 12 12 12 12 12
7 10 10 4 9 14 12 5 8 17 13 14 15 10 8 9 10 5 2 3 4 2 4 5 6 7 9 10 11 11 12 12 12 12 11 11 11 11 12 12 12 13 13 13 12 12 12 12 13
7 7 7 6 9 19 14 13 3 8 8 12 9 9 8 12 14 14 5 2 2 3 5 7 8 10 10 11 12 12 12 12 12 12 12 12 12 11 12 12 14 13 13 13 12 12 12 12 12
6 8 5 10 17 18 25 10 6 10 13 3 4 6 12 11 13 12 11 8 2 5 7 8 10 11 12 12 12 11 11 12 12 13 13 14 14 13 13 13 13 14 14 13 13 13 12 11 12
7 5 8 15 25 27 21 4 10 4 9 1 6 11 11 13 13 14 13 10 7 8 8 9 11 12 13 13 11 11 11 12 13 14 14 13 14 14 14 14 14 13 13 13 13 13 13 13 13
11 3 14 22 26 25 20 6 4 2 2 3 8 10 10 11 12 15 17 14 11 10 10 11 13 13 14 12 11 11 12 11 12 13 14 14 14 14 15 15 15 14 13 13 13 12 12 13 14
5 3 11 21 25 19 14 12 8 6 4 3 7 5 5 8 13 17 18 19 17 12 12 14 15 15 14 13 13 13 13 13 13 13 14 14 14 15 16 17 16 15 14 14 14 13 13 13 14
3 11 20 25 24 20 13 7 10 9 8 12 15 14 14 11 16 21 24 22 21 17 15 17 18 16 16 15 15 15 15 15 15 15 15 15 15 15 16 17 17 17 16 15 14 14 14 15 15
9 20 24 23 17 17 16 12 7 13 7 9 15 21 15 14 19 19 23 25 22 24 17 19 20 18 18 17 17 18 18 18 18 18 16 16 16 15 16 17 17 17 17 16 17 17 17 16 17
9 13 16 13 22 13 12 13 12 8 7 8 11 15 15 18 17 16 19 21 20 24 21 21 22 20 20 17 17 17 17 18 18 18 17 16 16 14 15 17 17 17 19 19 20 20 20 17 18
14 23 17 16 21 20 11 15 15 10 10 9 17 17 14 19 23 25 24 21 21 24 25 21 23 21 19 17 16 17 18 17 16 16 16 16 17 18 16 17 18 18 19 18 19 20 22 20 21
15 19 20 18 20 20 20 16 14 10 10 12 16 22 18 15 17 20 22 19 21 24 26 23 20 21 18 17 16 18 17 16 15 15 16 15 15 15 16 17 18 20 21 21 21 22 22 20 20
21 12 11 12 17 14 9 11 11 12 16 12 10 10 14 16 13 14 17 16 19 24 27 24 11 20 19 16 17 19 18 17 17 14 11 13 14 16 18 19 20 22 25 27 25 24 24 22 21
13 18 18 13 8 5 2 6 8 7 8 11 10 6 11 13 7 10 16 20 24 26 30 27 21 22 17 15 15 16 14 13 14 15 14 14 17 20 21 22 23 24 25 26 27 26 25 24 24
12 17 13 10 11 10 6 6 4 5 6 7 9 4 8 7 9 14 19 21 23 23 17 23 28 21 15 16 13 13 14 15 14 17 24 22 23 25 24 25 26 27 28 29 30 28 26 26 26
11 11 14 18 18 8 4 11 6 6 10 5 9 7 4 9 12 16 18 18 23 25 24 26 23 20 17 17 17 16 18 18 18 20 26 30 31 33 34 32 31 30 30 33 33 30 29 27 27
12 10 16 7 13 8 2 15 8 8 9 5 5 5 3 8 16 17 19 18 18 22 21 20 22 20 17 17 18 20 20 24 26 28 32 33 36 38 40 40 40 37 35 36 34 33 32 31 29
14 16 16 17 8 4 6 16 6 5 4 6 7 2 6 11 16 17 11 20 19 27 22 24 24 18 18 18 20 26 31 37 36 33 34 35 36 37 40 43 43 44 45 41 35 36 34 32 30
11 12 11 12 7 6 19 17 14 10 7 3 7 5 9 13 13 16 13 15 16 21 27 25 19 22 25 27 28 29 31 31 31 31 31 33 36 37 39 40 47 51 47 42 37 33 32 31 29
7 8 14 8 8 9 17 25 18 16 12 5 4 1 5 10 17 23 23 17 23 21 27 32 23 24 29 29 27 30 30 32 31 32 34 36 39 45 50 49 48 46 44 41 35 33 31 30 28
10 9 13 12 14 6 8 16 9 12 18 10 3 7 9 10 12 12 11 15 21 25 24 20 22 29 26 26 29 32 33 34 37 38 39 40 43 44 45 45 45 47 46 43 39 31 31 30 28
18 14 17 16 13 11 10 6 11 10 10 9 8 8 8 11 14 13 14 14 16 17 18 21 22 23 26 30 31 32 37 40 40 42 40 39 39 40 41 42 44 46 46 42 39 35 32 33 32
13 17 15 17 16 14 12 9 13 13 7 8 12 10 9 9 10 10 14 18 18 24 26 28 28 32 31 31 32 35 37 40 41 41 42 41 41 40 40 41 41 42 43 44 41 37 32 32 33
12 17 10 6 9 3 13 12 11 9 7 9 11 10 9 8 11 17 18 21 25 27 27 27 26 26 28 29 31 34 37 38 40 41 43 44 44 44 45 43 43 44 45 46 44 42 37 32 32
16 17 7 9 8 4 15 16 7 8 8 7 8 10 11 14 16 13 19 26 26 26 25 24 26 28 30 32 34 37 39 43 47 50 52 53 54 52 50 50 49 48 45 46 47 46 43 39 35
12 13 6 3 2 2 8 5 4 11 6 7 8 6 8 10 13 19 23 22 25 25 25 27 29 32 34 38 42 45 50 52 57 53 46 44 43 44 44 44 43 43 45 51 51 51 50 46 40
6 8 9 9 14 8 5 9 14 11 7 3 5 12 16 17 17 22 21 23 24 25 28 32 35 38 40 44 47 49 51 53 46 41 38 33 31 30 29 30 31 31 30 31 38 52 54 47 43
6 4 4 4 3 3 8 13 8 14 8 11 15 19 21 24 23 25 24 24 26 29 32 34 37 40 44 43 48 47 38 35 32 31 28 27 26 27 28 30 30 29 28 27 26 30 41 49 39
6 4 6 8 4 4 3 3 9 9 9 12 15 14 20 23 27 25 24 26 29 32 34 36 41 46 46 53 43 35 34 35 32 29 28 28 29 30 31 31 31 29 27 26 26 26 31 42 46
11 14 6 6 5 8 8 6 8 7 12 13 17 21 16 24 26 24 26 30 32 35 39 42 47 48 53 40 33 33 32 30 29 29 30 32 32 33 32 30 28 26 25 25 23 24 25 35 41
Wind_Direction
326 315 308 316 292 278 284 298 276 309 347 355 323 309 310 281 294 265 129 134 136 161 202 227 243 262 272 282 295 299 300 301 302 299 296 294 289 288 286 281 279 276 271 265 260 257 254 252 250
317 307 294 286 277 272 290 312 23 357 346 326 327 312 299 284 274 282 195 136 158 207 252 265 274 274 283 297 302 303 302 303 302 302 299 295 291 288 286 284 278 272 269 264 259 256 252 247 246
296 293 322 318 279 263 272 301 86 10 316 316 331 297 304 272 273 274 274 201 202 265 276 271 269 278 285 288 293 300 305 305 305 303 303 300 296 293 290 286 284 280 274 268 264 256 254 251 247
272 291 302 258 276 291 299 304 318 263 317 245 299 242 273 276 265 257 252 255 276 290 274 272 270 273 276 281 289 296 298 302 303 304 302 301 301 301 300 297 291 287 284 281 275 269 263 255 249
259 280 272 283 295 309 325 225 241 147 44 295 288 287 262 272 282 263 262 267 276 282 280 272 266 269 270 277 281 286 291 294 301 303 303 303 301 300 301 299 297 293 288 285 281 279 273 266 259
249 248 283 289 310 314 310 312 328 129 153 61 313 287 242 254 272 277 267 266 263 282 276 272 261 260 264 265 270 275 282 291 299 302 303 305 305 304 303 299 297 294 292 288 285 280 274 268 263
256 218 283 307 295 324 26 19 23 353 321 9 332 268 242 252 271 273 278 276 265 268 260 263 255 257 258 255 258 269 275 282 287 291 292 296 298 303 305 302 297 294 289 286 284 282 277 271 264
245 282 289 285 292 316 344 34 21 5 319 299 291 281 281 283 273 277 286 284 262 251 255 255 251 253 252 251 256 263 269 274 276 276 280 282 286 290 295 297 295 293 292 289 286 282 277 274 268
209 255 268 273 295 310 316 323 15 322 255 256 257 268 282 289 293 287 288 285 282 256 263 258 250 248 247 248 255 262 266 270 272 272 272 274 278 283 291 291 291 290 290 293 294 291 286 281 275
246 254 262 301 306 308 309 326 335 296 302 282 256 263 280 293 292 296 296 296 285 272 261 266 249 243 245 247 252 259 263 265 266 268 270 274 276 273 276 288 291 298 298 300 298 294 289 286 276
252 260 273 290 283 298 324 311 306 295 283 333 320 309 295 286 294 292 290 281 270 265 262 258 247 243 242 246 248 252 254 256 259 266 273 274 278 288 291 289 290 291 292 291 288 287 286 286 279
273 278 270 269 287 291 308 302 282 307 299 316 311 305 309 305 300 296 293 283 275 274 270 270 256 249 246 249 244 246 246 249 252 254 258 272 283 288 292 292 295 296 297 295 295 290 284 277 272
280 280 270 281 272 290 321 281 286 290 305 312 305 299 290 302 299 293 297 295 285 291 294 296 291 264 258 250 247 243 249 248 246 257 270 278 284 285 289 298 303 305 309 309 307 301 294 286 276
283 269 272 243 299 265 321 253 255 39 14 340 345 306 318 321 285 237 270 266 280 284 282 296 301 282 268 260 266 275 268 266 275 271 269 272 282 288 290 297 302 304 301 299 299 296 291 285 277
262 270 296 263 238 229 181 223 149 155 85 31 357 318 299 316 301 243 248 257 267 281 260 293 289 284 259 258 251 249 248 260 260 281 282 279 276 278 286 289 293 296 299 303 301 296 288 283 277
295 287 287 3 201 196 237 143 152 155 177 120 358 318 299 243 231 243 256 250 255 288 271 282 293 266 242 243 236 240 250 257 269 280 283 287 285 283 285 280 280 285 295 301 301 294 287 279 274
23 340 13 262 194 163 204 139 158 183 137 106 36 1 28 228 235 237 237 231 251 271 273 282 280 260 242 240 251 254 266 274 271 269 272 279 284 287 286 286 284 287 292 304 302 296 289 283 276
337 340 338 351 228 181 110 122 117 125 102 124 146 181 222 225 215 239 213 242 240 266 255 254 265 267 253 264 273 273 269 271 269 273 275 277 280 294 299 298 299 298 299 299 295 292 287 282 276
333 319 328 336 108 98 134 97 69 60 88 148 179 207 220 254 219 249 197 219 228 238 248 261 263 267 269 267 277 295 287 277 274 281 283 287 293 282 279 285 283 287 289 292 292 286 281 277 273
308 319 320 288 41 92 139 99 95 74 66 79 355 233 276 268 259 255 234 199 214 238 268 270 277 279 290 291 287 283 285 287 287 281 277 273 275 276 278 281 284 286 286 286 283 280 275 270 266
281 351 317 304 307 358 191 91 81 68 35 24 352 335 307 305 312 324 327 313 308 302 296 300 297 291 292 292 292 288 291 287 283 281 279 276 274 277 279 279 280 281 284 285 284 278 274 269 260
329 301 306 301 307 303 293 102 56 91 80 31 32 22 359 344 345 332 316 308 303 304 316 314 312 309 303 295 294 287 289 292 292 292 290 286 282 279 276 274 273 274 275 276 277 277 271 266 262
330 317 316 306 291 277 348 82 51 61 99 57 24 9 349 347 355 352 341 335 330 318 315 309 306 310 307 304 301 297 293 290 290 289 286 283 281 277 274 271 268 267 268 270 271 270 266 263 261
346 320 329 321 255 63 11 121 50 54 55 45 11 7 346 360 5 349 338 326 315 312 312 315 317 315 311 308 306 305 302 299 295 293 290 287 285 282 277 274 271 270 268 266 263 262 258 255 254
2 11 16 35 30 58 67 71 97 71 42 22 10 26 21 357 339 332 313 317 327 330 328 327 325 321 317 315 314 311 310 304 298 295 293 290 288 287 282 277 270 266 264 265 264 261 259 255 250
14 38 76 86 96 77 52 87 52 79 12 59 36 358 332 341 326 312 321 331 334 336 334 330 326 323 319 317 317 313 309 306 306 304 298 295 291 286 282 278 275 271 264 255 248 254 254 254 252
1 61 68 114 96 91 48 86 77 57 62 41 310 303 310 324 328 347 344 341 337 333 330 329 329 329 325 323 319 312 307 304 304 302 302 300 295 293 290 285 280 276 272 265 252 244 245 249 248
28 29 131 93 88 94 126 65 64 48 17 347 339 347 353 351 351 348 348 343 338 338 337 334 330 328 325 322 315 314 313 312 308 304 302 300 299 296 295 291 285 279 272 267 260 244 234 233 237
37 98 94 94 75 138 124 55 43 26 345 342 342 352 351 343 346 350 348 344 342 343 337 332 330 331 328 322 326 325 319 314 311 306 302 302 301 298 296 292 287 280 272 264 258 250 236 227 230
42 68 113 97 88 70 102 54 54 29 356 352 3 8 349 334 342 349 348 348 347 342 341 339 336 333 328 331 331 322 323 320 313 309 307 306 304 302 300 295 286 279 270 263 255 244 235 223 215